Time,TemperatureF,DewpointF,PressureIn,WindDirection,WindDirectionDegrees,WindSpeedMPH,WindSpeedGustMPH,Humidity,HourlyPrecipIn,Conditions,Clouds,dailyrainin,SoftwareType,DateUTC
2013-03-12 00:04:00,45.3,38.9,30.02,ESE,118,3.6,4.0,78,0.00,,CLR,0.00,VWS V14.01,2013-03-12 07:04:00,
2013-03-12 00:09:00,45.3,39.2,30.02,ESE,117,3.1,4.0,79,0.00,,CLR,0.00,VWS V14.01,2013-03-12 07:09:00,
2013-03-12 00:14:00,45.5,39.4,30.02,ESE,117,3.1,3.6,79,0.00,,CLR,0.00,VWS V14.01,2013-03-12 07:14:00,
2013-03-12 00:19:00,45.0,38.2,30.05,ESE,117,4.0,4.5,77,0.00,,CLR,0.00,VWS V14.01,2013-03-12 07:19:00,
2013-03-12 00:24:00,45.0,38.8,30.05,ESE,117,4.5,4.9,79,0.00,,CLR,0.00,VWS V14.01,2013-03-12 07:24:00,
2013-03-12 00:29:00,44.8,39.0,30.05,ESE,118,4.5,4.9,80,0.00,,CLR,0.00,VWS V14.01,2013-03-12 07:29:00,
2013-03-12 00:34:00,44.6,38.8,30.05,ESE,118,4.5,4.5,80,0.00,,CLR,0.00,VWS V14.01,2013-03-12 07:34:00,
2013-03-12 00:39:00,44.8,39.6,30.05,ESE,119,3.1,3.6,82,0.00,,CLR,0.00,VWS V14.01,2013-03-12 07:39:00,
2013-03-12 00:44:00,45.0,40.1,30.05,ESE,119,3.1,3.1,83,0.00,,CLR,0.00,VWS V14.01,2013-03-12 07:44:00,
2013-03-12 00:49:00,44.6,39.5,30.05,ESE,118,3.6,4.0,82,0.00,,CLR,0.00,VWS V14.01,2013-03-12 07:49:00,
2013-03-12 00:54:00,44.1,38.6,30.05,ESE,118,4.5,4.9,81,0.00,,CLR,0.00,VWS V14.01,2013-03-12 07:54:00,
2013-03-12 01:00:00,43.7,38.3,30.05,ESE,118,3.6,4.5,81,0.00,,CLR,0.00,VWS V14.01,2013-03-12 08:00:00,
2013-03-12 01:05:00,44.2,39.4,30.05,ESE,118,2.7,3.6,83,0.00,,CLR,0.00,VWS V14.01,2013-03-12 08:05:00,
2013-03-12 01:11:00,44.2,39.7,30.05,ESE,118,0.0,0.0,84,0.00,,CLR,0.00,VWS V14.01,2013-03-12 08:11:00,
2013-03-12 01:16:00,43.0,36.9,30.05,ESE,118,3.6,3.6,79,0.00,,CLR,0.00,VWS V14.01,2013-03-12 08:16:00,
2013-03-12 01:21:00,43.0,37.6,30.05,ESE,119,4.5,4.9,81,0.00,,CLR,0.00,VWS V14.01,2013-03-12 08:21:00,
2013-03-12 01:26:00,43.9,39.7,30.05,ESE,119,2.7,3.1,85,0.00,,CLR,0.00,VWS V14.01,2013-03-12 08:26:00,
2013-03-12 01:31:00,44.1,40.2,30.05,ESE,118,3.1,3.1,86,0.00,,CLR,0.00,VWS V14.01,2013-03-12 08:31:00,
2013-03-12 01:36:00,43.7,39.8,30.05,ESE,119,3.1,3.6,86,0.00,,CLR,0.00,VWS V14.01,2013-03-12 08:36:00,
2013-03-12 01:41:00,43.2,39.0,30.05,ESE,118,3.6,3.6,85,0.00,,CLR,0.00,VWS V14.01,2013-03-12 08:41:00,
2013-03-12 01:46:00,43.2,38.7,30.05,ESE,119,3.6,3.6,84,0.00,,CLR,0.00,VWS V14.01,2013-03-12 08:46:00,
2013-03-12 01:51:00,43.5,39.6,30.05,ESE,118,3.6,3.6,86,0.00,,CLR,0.00,VWS V14.01,2013-03-12 08:51:00,